FW5161 Eastsound WA US current weather conditions

sailwx.info

Wind from 316 at 1 knots gusting 4

Air temperature 17.2° C
Dewpoint 11.5° C

Last reported at 2020-Jul-06 16:57 UTC.
Time now 2020-Jul-06 17:22 UTC

Location: N 48°40' W 122°58'.
View on Google Maps.

See reports from other nearby stations

  
Tides and Currents Weather Stations Pressure Air Temp Water Temp Dewpoint Dewpoint Depression Visibility Wind Speed Wind Dir Waves Ship Positions
date/time (UTC)wind fromknots sea level pressurealtimeterstation pressurevisibilityair tempwater tempwave heightnotes
2020-Jul-06 16:57 316 1 gusting 4 17.2
2020-Jul-06 16:52 323 1 gusting 4 17.2
2020-Jul-06 16:47 328 1 gusting 4 16.7
2020-Jul-06 16:42 329 2 gusting 4 16.7
2020-Jul-06 16:37 333 1 gusting 4 16.7
2020-Jul-06 16:32 327 1 gusting 6 16.1
2020-Jul-06 16:27 343 1 gusting 6 15.6
2020-Jul-06 16:22 314 1 gusting 3 15.6
2020-Jul-06 16:17 323 0 gusting 3 15.6
2020-Jul-06 16:12 338 1 gusting 3 15.0
2020-Jul-06 16:07 275 1 gusting 4 14.4
2020-Jul-06 16:02 335 1 gusting 4 15.0
2020-Jul-06 15:57 312 1 gusting 3 14.4
2020-Jul-06 15:52 334 0 gusting 3 14.4
2020-Jul-06 15:47 311 1 gusting 3 14.4
2020-Jul-06 15:42 319 1 gusting 2 14.4
2020-Jul-06 15:37 284 0 gusting 2 14.4
2020-Jul-06 15:32 304 0 gusting 2 14.4
2020-Jul-06 15:27 354 0 gusting 2 13.9
2020-Jul-06 15:22 008 0 gusting 2 13.3
2020-Jul-06 15:17 325 0 gusting 2 13.3
2020-Jul-06 15:12 333 0 gusting 2 13.3
2020-Jul-06 15:07 333 0 gusting 2 13.3
2020-Jul-06 15:02 341 0 gusting 2 13.3
2020-Jul-06 14:57 345 0 gusting 2 13.3
2020-Jul-06 14:52 348 13.3
2020-Jul-06 14:47 348 0 gusting 1 13.3
2020-Jul-06 14:42 349 0 gusting 1 13.3
2020-Jul-06 14:37 029 0 gusting 2 13.3
2020-Jul-06 14:32 030 0 gusting 2 13.3
2020-Jul-06 14:27 014 13.3
2020-Jul-06 14:22 014 13.3
2020-Jul-06 14:17 014 13.3
2020-Jul-06 14:12 014 13.3
2020-Jul-06 14:07 014 12.8
2020-Jul-06 14:02 014 12.8
2020-Jul-06 13:57 014 12.8
2020-Jul-06 13:52 013 12.8
2020-Jul-06 13:47 013 12.8
2020-Jul-06 13:42 013 0 gusting 1 12.2
2020-Jul-06 13:37 013 0 gusting 2 12.8
2020-Jul-06 13:32 013 0 gusting 2 12.8
2020-Jul-06 13:27 016 0 gusting 1 13.3
2020-Jul-06 13:22 020 0 gusting 3 13.3
2020-Jul-06 13:17 093 1 gusting 3 13.3
2020-Jul-06 13:12 024 0 gusting 2 13.3
2020-Jul-06 13:07 333 0 gusting 1 13.3
2020-Jul-06 13:02 333 1 gusting 2 13.3
2020-Jul-06 12:57 073 1 gusting 2 13.3
2020-Jul-06 12:52 087 0 gusting 2 13.3
2020-Jul-06 12:47 115 0 gusting 2 13.3
2020-Jul-06 12:42 111 0 gusting 3 13.9
2020-Jul-06 12:37 073 0 gusting 3 13.9
2020-Jul-06 12:32 133 1 gusting 6 13.9
2020-Jul-06 12:27 164 2 gusting 6 13.9
2020-Jul-06 12:22 123 3 gusting 6 13.9
2020-Jul-06 12:17 160 2 gusting 6 13.9
2020-Jul-06 12:12 116 2 gusting 6 14.4
2020-Jul-06 12:07 154 2 gusting 5 13.9
2020-Jul-06 12:02 143 1 gusting 5 13.9
2020-Jul-06 11:57 148 0 gusting 3 13.9
2020-Jul-06 11:52 116 0 gusting 3 13.9
2020-Jul-06 11:47 145 0 gusting 3 13.9
2020-Jul-06 11:42 193 0 gusting 3 13.9
2020-Jul-06 11:37 184 1 gusting 2 13.9
2020-Jul-06 11:31 120 1 gusting 3 13.3
2020-Jul-06 11:26 162 1 gusting 3 13.3
2020-Jul-06 11:21 136 1 gusting 5 13.9
2020-Jul-06 11:16 172 1 gusting 5 13.9
2020-Jul-06 11:11 152 2 gusting 8 13.9
2020-Jul-06 11:06 156 2 gusting 8 13.3
2020-Jul-06 11:01 127 2 gusting 6 13.3
2020-Jul-06 10:56 173 2 gusting 6 13.3
2020-Jul-06 10:51 164 2 gusting 6 13.3
2020-Jul-06 10:46 143 1 gusting 5 13.3
2020-Jul-06 10:41 187 2 gusting 6 13.3
2020-Jul-06 10:36 124 1 gusting 6 13.3
2020-Jul-06 10:31 175 1 gusting 6 13.3
2020-Jul-06 10:26 190 1 gusting 6 13.3
2020-Jul-06 10:21 220 0 gusting 3 13.3
2020-Jul-06 10:16 164 0 gusting 2 13.3
2020-Jul-06 10:11 337 0 gusting 2 13.9
2020-Jul-06 10:06 337 1 gusting 3 13.9
2020-Jul-06 10:01 318 0 gusting 3 14.4
2020-Jul-06 09:56 237 0 gusting 2 13.9
2020-Jul-06 09:51 216 0 gusting 2 13.3
2020-Jul-06 09:46 096 0 gusting 1 13.3
2020-Jul-06 09:41 096 1 gusting 1 13.3
2020-Jul-06 09:36 096 1 gusting 1 13.3
2020-Jul-06 09:31 096 0 gusting 1 13.3
2020-Jul-06 09:26 096 0 gusting 1 13.3
2020-Jul-06 09:21 096 0 gusting 1 13.3
2020-Jul-06 09:16 096 0 gusting 2 13.3
2020-Jul-06 09:11 096 0 gusting 2 13.9
2020-Jul-06 09:06 096 0 gusting 1 13.9
2020-Jul-06 09:01 096 0 gusting 1 13.9
2020-Jul-06 08:56 096 0 gusting 1 13.9
2020-Jul-06 08:51 096 0 gusting 1 13.9
2020-Jul-06 08:46 096 0 gusting 2 13.9
2020-Jul-06 08:41 096 1 gusting 2 14.4
2020-Jul-06 08:36 106 1 gusting 2 13.9
2020-Jul-06 08:31 106 1 gusting 2 13.9
2020-Jul-06 08:26 109 0 gusting 2 14.4
2020-Jul-06 08:21 087 0 gusting 2 14.4
2020-Jul-06 08:16 087 0 gusting 2 14.4
2020-Jul-06 08:11 110 0 gusting 2 14.4
2020-Jul-06 08:06 110 14.4
2020-Jul-06 08:01 110 0 gusting 1 14.4
2020-Jul-06 07:56 110 0 gusting 1 14.4
2020-Jul-06 07:51 110 0 gusting 1 14.4
2020-Jul-06 07:46 110 0 gusting 1 14.4
2020-Jul-06 07:41 110 0 gusting 1 14.4
2020-Jul-06 07:36 110 0 gusting 1 15.0
2020-Jul-06 07:31 108 1 gusting 2 15.0
2020-Jul-06 07:26 108 1 gusting 2 15.0
2020-Jul-06 07:21 108 0 gusting 2 15.0
2020-Jul-06 07:16 108 1 gusting 2 15.0
2020-Jul-06 07:11 108 0 gusting 2 15.0
2020-Jul-06 07:06 108 0 gusting 2 15.0
2020-Jul-06 07:01 110 0 gusting 2 15.0
2020-Jul-06 06:56 109 0 gusting 2 15.0
2020-Jul-06 06:51 096 0 gusting 2 15.0
2020-Jul-06 06:46 120 0 gusting 2 15.0
2020-Jul-06 06:41 140 0 gusting 2 15.0
2020-Jul-06 06:36 077 0 gusting 2 15.0
2020-Jul-06 06:31 077 1 gusting 2 15.0
2020-Jul-06 06:26 077 0 gusting 2 15.0
2020-Jul-06 06:21 077 0 gusting 2 15.0
2020-Jul-06 06:16 077 0 gusting 2 15.6
2020-Jul-06 06:11 087 1 gusting 2 15.6
2020-Jul-06 06:06 085 0 gusting 3 15.6
2020-Jul-06 06:00 090 0 gusting 4 16.1
2020-Jul-06 05:56 022 1 gusting 4 16.1
2020-Jul-06 05:50 358 1 gusting 5 16.7
2020-Jul-06 05:45 356 1 gusting 9 16.7
2020-Jul-06 05:40 341 2 gusting 9 16.7
2020-Jul-06 05:35 024 1 gusting 5 16.7
2020-Jul-06 05:30 035 1 gusting 5 16.1
2020-Jul-06 05:25 352 0 gusting 3 16.1
2020-Jul-06 05:20 057 0 gusting 3 16.1
2020-Jul-06 05:15 056 1 gusting 6 16.7
2020-Jul-06 05:10 139 1 gusting 6 16.1
2020-Jul-06 05:05 071 0 gusting 3 16.1
2020-Jul-06 05:00 074 1 gusting 6 16.7
2020-Jul-06 04:55 098 1 gusting 6 16.7
2020-Jul-06 04:50 090 1 gusting 6 16.7
2020-Jul-06 04:45 007 1 gusting 4 16.1
2020-Jul-06 04:40 148 1 gusting 4 16.7
2020-Jul-06 04:35 339 1 gusting 3 16.7
2020-Jul-06 04:30 077 1 gusting 3 17.2
2020-Jul-06 04:25 071 1 gusting 6 17.2
2020-Jul-06 04:20 087 3 gusting 7 17.2
2020-Jul-06 04:15 200 4 gusting 7 17.2
2020-Jul-06 04:10 210 3 gusting 6 17.2
2020-Jul-06 04:05 173 3 gusting 9 17.8
2020-Jul-06 04:00 173 3 gusting 9 17.8
2020-Jul-06 03:55 131 2 gusting 7 17.8
2020-Jul-06 03:50 162 2 gusting 7 17.8
2020-Jul-06 03:45 099 3 gusting 8 17.8
2020-Jul-06 03:40 041 3 gusting 8 17.8
2020-Jul-06 03:35 181 2 gusting 6 18.3
2020-Jul-06 03:30 139 2 gusting 6 18.9
2020-Jul-06 03:25 139 1 gusting 6 18.9
2020-Jul-06 03:20 244 1 gusting 4 19.4
2020-Jul-06 03:15 244 1 gusting 5 19.4
2020-Jul-06 03:10 302 1 gusting 5 19.4
2020-Jul-06 03:05 269 2 gusting 6 19.4
2020-Jul-06 03:00 224 1 gusting 6 19.4
2020-Jul-06 02:55 098 1 gusting 5 19.4
2020-Jul-06 02:50 112 1 gusting 4 19.4
2020-Jul-06 02:45 249 2 gusting 6 20.0
2020-Jul-06 02:40 225 3 gusting 7 20.0
2020-Jul-06 02:35 244 4 gusting 8 20.0
2020-Jul-06 02:30 244 4 gusting 8 20.0
2020-Jul-06 02:25 244 3 gusting 7 20.6
2020-Jul-06 02:20 298 2 gusting 6 20.0
2020-Jul-06 02:15 182 2 gusting 6 20.6
2020-Jul-06 02:10 178 3 gusting 6 20.0
2020-Jul-06 02:05 184 3 gusting 7 20.6
2020-Jul-06 02:00 224 2 gusting 7 20.6
2020-Jul-06 01:55 173 1 gusting 5 20.6
2020-Jul-06 01:50 268 1 gusting 5 20.6
2020-Jul-06 01:45 227 1 gusting 6 20.6
2020-Jul-06 01:40 320 1 gusting 6 20.6
2020-Jul-06 01:35 224 1 gusting 4 20.6
2020-Jul-06 01:30 195 1 gusting 4 20.6
2020-Jul-06 01:25 259 2 gusting 5 20.6
2020-Jul-06 01:20 236 2 gusting 6 20.0
2020-Jul-06 01:15 222 2 gusting 6 20.6
2020-Jul-06 01:10 279 1 gusting 5 20.6
2020-Jul-06 01:05 258 2 gusting 6 20.6
2020-Jul-06 01:00 203 3 gusting 6 20.6
2020-Jul-06 00:55 210 2 gusting 6 20.6
2020-Jul-06 00:50 218 2 gusting 6 20.6
2020-Jul-06 00:45 228 2 gusting 5 20.6
2020-Jul-06 00:40 239 2 gusting 5 20.6
2020-Jul-06 00:35 268 2 gusting 5 21.1
2020-Jul-06 00:30 270 2 gusting 5 21.1
2020-Jul-06 00:25 229 2 gusting 5 20.6
2020-Jul-06 00:20 217 3 gusting 7 20.6
2020-Jul-06 00:15 244 2 gusting 7 20.6
2020-Jul-06 00:10 279 2 gusting 6 20.6
2020-Jul-06 00:05 227 2 gusting 6 20.6
2020-Jul-06 00:00 225 3 gusting 6 20.6
2020-Jul-05 23:50 244 3 gusting 7 20.6
2020-Jul-05 23:45 214 3 gusting 7 20.0
2020-Jul-05 23:40 262 2 gusting 7 20.6
2020-Jul-05 23:35 229 3 gusting 6 21.1
2020-Jul-05 23:30 275 3 gusting 7 20.0
2020-Jul-05 23:25 230 3 gusting 7 20.0
2020-Jul-05 23:20 239 3 gusting 7 20.0
2020-Jul-05 23:15 222 3 gusting 7 19.4
2020-Jul-05 23:10 310 3 gusting 7 19.4
2020-Jul-05 23:05 288 3 gusting 6 20.0
2020-Jul-05 23:00 238 3 gusting 6 19.4
2020-Jul-05 22:55 288 2 gusting 6 20.0
2020-Jul-05 22:50 199 2 gusting 5 20.6
2020-Jul-05 22:45 200 2 gusting 4 20.6
2020-Jul-05 22:40 297 2 gusting 5 20.6
2020-Jul-05 22:35 316 2 gusting 5 21.1
2020-Jul-05 22:30 207 3 gusting 6 20.6
2020-Jul-05 22:25 231 3 gusting 6 20.0
2020-Jul-05 22:20 244 2 gusting 5 20.0
2020-Jul-05 22:15 210 2 gusting 4 21.1
2020-Jul-05 22:10 204 2 gusting 6 20.6
2020-Jul-05 22:05 290 2 gusting 6 20.6
2020-Jul-05 22:00 281 2 gusting 5 20.6
2020-Jul-05 21:55 291 2 gusting 5 20.6
2020-Jul-05 21:50 322 2 gusting 5 20.6
2020-Jul-05 21:45 225 2 gusting 4 20.6
2020-Jul-05 21:40 289 2 gusting 4 20.6
2020-Jul-05 21:35 310 2 gusting 5 20.0
2020-Jul-05 21:30 302 2 gusting 5 20.6
2020-Jul-05 21:25 235 2 gusting 5 20.0
2020-Jul-05 21:20 311 2 gusting 5 20.0
2020-Jul-05 21:15 279 2 gusting 7 20.6
2020-Jul-05 21:09 312 2 gusting 7 20.6
2020-Jul-05 21:05 220 3 gusting 6 19.4
2020-Jul-05 20:59 269 3 gusting 6 19.4
2020-Jul-05 20:54 270 3 gusting 6 19.4
2020-Jul-05 20:49 277 3 gusting 6 19.4
2020-Jul-05 20:44 296 3 gusting 6 19.4
2020-Jul-05 20:39 271 3 gusting 6 19.4
2020-Jul-05 20:34 233 2 gusting 6 19.4
2020-Jul-05 20:29 204 2 gusting 5 18.9
2020-Jul-05 20:24 301 2 gusting 4 19.4
2020-Jul-05 20:19 220 2 gusting 5 19.4
2020-Jul-05 20:14 285 2 gusting 5 19.4
2020-Jul-05 20:09 276 3 gusting 5 19.4
2020-Jul-05 20:04 289 3 gusting 6 18.9
2020-Jul-05 19:59 263 3 gusting 6 19.4
2020-Jul-05 19:54 239 2 gusting 5 19.4
2020-Jul-05 19:49 268 2 gusting 4 19.4
2020-Jul-05 19:44 265 2 gusting 4 18.9
2020-Jul-05 19:39 288 2 gusting 4 18.9
2020-Jul-05 19:34 260 1 gusting 4 18.9
2020-Jul-05 19:29 236 2 gusting 4 18.3
2020-Jul-05 19:24 237 2 gusting 4 18.3
2020-Jul-05 19:19 254 2 gusting 4 18.3
2020-Jul-05 19:14 305 1 gusting 4 18.3
2020-Jul-05 19:09 278 2 gusting 4 18.3
2020-Jul-05 19:04 240 2 gusting 4 17.8
2020-Jul-05 18:59 329 2 gusting 4 17.8
2020-Jul-05 18:54 293 2 gusting 4 17.8
2020-Jul-05 18:49 304 2 gusting 4 17.8
2020-Jul-05 18:44 308 2 gusting 4 18.3
2020-Jul-05 18:39 295 1 gusting 3 17.2
2020-Jul-05 18:34 285 2 gusting 4 17.2
2020-Jul-05 18:29 312 2 gusting 4 17.2
2020-Jul-05 18:24 323 2 gusting 4 17.2
2020-Jul-05 18:19 320 2 gusting 6 17.2
2020-Jul-05 18:14 316 2 gusting 6 17.2
2020-Jul-05 18:09 312 2 gusting 4 17.2
2020-Jul-05 18:04 320 2 gusting 4 17.2
2020-Jul-05 17:59 318 2 gusting 4 16.7
2020-Jul-05 17:54 300 2 gusting 4 16.7
2020-Jul-05 17:49 298 1 gusting 3 16.7
2020-Jul-05 17:44 293 1 gusting 3 16.7
2020-Jul-05 17:39 318 1 gusting 4 16.1
2020-Jul-05 17:34 307 2 gusting 4 16.1
2020-Jul-05 17:29 318 2 gusting 4 16.7
2020-Jul-05 17:24 315 2 gusting 4 16.7
2020-Jul-05 17:19 318 1 gusting 4 16.1
2020-Jul-05 17:14 310 1 gusting 3 16.1
2020-Jul-05 17:09 312 1 gusting 3 15.6
2020-Jul-05 17:04 312 1 gusting 3 15.6
2020-Jul-05 16:59 316 1 gusting 3 15.6
2020-Jul-05 16:54 316 1 gusting 3 15.6
2020-Jul-05 16:49 318 1 gusting 4 15.6
2020-Jul-05 16:44 318 1 gusting 4 15.6
2020-Jul-05 16:39 316 1 gusting 3 15.6
2020-Jul-05 16:34 326 1 gusting 3 15.6
2020-Jul-05 16:29 302 2 gusting 3 15.6
2020-Jul-05 16:24 311 1 gusting 4 15.0
2020-Jul-05 16:19 318 1 gusting 4 15.0
2020-Jul-05 16:14 320 1 gusting 3 15.0
2020-Jul-05 16:09 320 1 gusting 3 15.0
2020-Jul-05 16:04 325 1 gusting 2 15.0
2020-Jul-05 15:59 328 1 gusting 2 14.4
2020-Jul-05 15:54 328 1 gusting 2 14.4
2020-Jul-05 15:49 333 0 gusting 2 14.4
2020-Jul-05 15:44 331 1 gusting 2 14.4
2020-Jul-05 15:39 332 0 gusting 2 13.9
2020-Jul-05 15:34 335 0 gusting 2 13.9
2020-Jul-05 15:29 337 0 gusting 2 13.9
2020-Jul-05 15:24 337 0 gusting 2 13.9
2020-Jul-05 15:19 337 0 gusting 2 13.9
2020-Jul-05 15:14 337 0 gusting 2 13.3
2020-Jul-05 15:09 337 1 gusting 2 13.3
2020-Jul-05 15:04 338 1 gusting 2 13.3
2020-Jul-05 14:59 338 1 gusting 2 13.3
2020-Jul-05 14:54 002 0 gusting 1 13.3
2020-Jul-05 14:49 020 0 gusting 1 13.3
2020-Jul-05 14:44 073 13.3
2020-Jul-05 14:39 073 13.3
2020-Jul-05 14:34 073 13.3
2020-Jul-05 14:29 073 0 gusting 1 13.3
2020-Jul-05 14:24 073 0 gusting 1 12.8
2020-Jul-05 14:19 073 13.3
2020-Jul-05 14:14 073 13.3
2020-Jul-05 14:09 073 12.8
2020-Jul-05 14:04 073 12.8
2020-Jul-05 13:59 073 12.8
2020-Jul-05 13:54 073 12.8
2020-Jul-05 13:49 073 12.8
2020-Jul-05 13:44 073 12.8
2020-Jul-05 13:39 073 0 gusting 1 12.8
2020-Jul-05 13:34 073 0 gusting 1 12.8
2020-Jul-05 13:29 073 0 gusting 1 12.8
2020-Jul-05 13:24 073 0 gusting 1 12.2
2020-Jul-05 13:19 073 0 gusting 1 12.2
2020-Jul-05 13:14 073 0 gusting 2 12.2
2020-Jul-05 13:09 073 1 gusting 2 12.2
2020-Jul-05 13:04 073 1 gusting 2 12.2
2020-Jul-05 12:59 073 1 gusting 2 12.2
2020-Jul-05 12:54 073 1 gusting 2 12.2
2020-Jul-05 12:48 073 1 gusting 2 12.2
2020-Jul-05 12:43 073 1 gusting 2 12.2
2020-Jul-05 12:38 073 1 gusting 2 12.2
2020-Jul-05 12:33 073 1 gusting 2 12.2
2020-Jul-05 12:28 073 1 gusting 2 12.2
2020-Jul-05 12:23 073 1 gusting 2 12.2
2020-Jul-05 12:18 073 0 gusting 2 12.2
2020-Jul-05 12:13 073 1 gusting 2 12.2
2020-Jul-05 12:08 073 1 gusting 2 12.2
2020-Jul-05 12:03 073 1 gusting 2 12.2
2020-Jul-05 11:58 073 0 gusting 1 12.8
2020-Jul-05 11:53 073 0 gusting 1 12.2
2020-Jul-05 11:48 073 0 gusting 1 12.8
2020-Jul-05 11:43 073 0 gusting 1 12.2
2020-Jul-05 11:38 073 0 gusting 1 12.8
2020-Jul-05 11:33 073 1 gusting 2 12.2
2020-Jul-05 11:28 073 1 gusting 2 12.8
2020-Jul-05 11:23 073 1 gusting 2 12.8
2020-Jul-05 11:18 073 1 gusting 2 12.8
2020-Jul-05 11:13 073 1 gusting 2 12.8
2020-Jul-05 11:08 073 1 gusting 2 12.8
2020-Jul-05 11:03 073 1 gusting 2 12.8
2020-Jul-05 10:58 073 1 gusting 2 12.8
2020-Jul-05 10:53 073 1 gusting 2 12.8
2020-Jul-05 10:48 073 1 gusting 2 12.8
2020-Jul-05 10:43 073 1 gusting 2 12.8
2020-Jul-05 10:38 073 1 gusting 2 12.8
2020-Jul-05 10:33 073 1 gusting 2 12.8
2020-Jul-05 10:28 073 1 gusting 3 12.8
2020-Jul-05 10:23 073 1 gusting 3 12.8
2020-Jul-05 10:18 073 1 gusting 2 12.8
2020-Jul-05 10:13 073 1 gusting 2 12.8
2020-Jul-05 10:08 073 1 gusting 2 12.8
2020-Jul-05 10:03 073 1 gusting 2 12.8
2020-Jul-05 09:58 073 1 gusting 2 12.8
2020-Jul-05 09:53 073 1 gusting 2 12.8
2020-Jul-05 09:48 073 1 gusting 2 12.8
2020-Jul-05 09:43 073 1 gusting 2 12.8
2020-Jul-05 09:38 073 1 gusting 2 12.8
2020-Jul-05 09:33 073 1 gusting 2 12.8
2020-Jul-05 09:28 073 1 gusting 2 12.8
2020-Jul-05 09:23 073 1 gusting 2 12.8
2020-Jul-05 09:18 073 1 gusting 2 12.8
2020-Jul-05 09:13 073 1 gusting 2 12.8
2020-Jul-05 09:08 073 1 gusting 2 12.8
2020-Jul-05 09:03 073 1 gusting 2 12.8
2020-Jul-05 08:58 073 1 gusting 2 12.8
2020-Jul-05 08:53 073 1 gusting 2 12.8
2020-Jul-05 08:48 073 1 gusting 2 12.8
2020-Jul-05 08:43 073 1 gusting 2 12.8
2020-Jul-05 08:38 073 1 gusting 2 12.8
2020-Jul-05 08:33 073 1 gusting 2 12.8
2020-Jul-05 08:28 073 1 gusting 2 12.8
2020-Jul-05 08:23 073 1 gusting 2 12.8
2020-Jul-05 08:18 073 1 gusting 2 12.8
2020-Jul-05 08:13 073 1 gusting 2 12.8
2020-Jul-05 08:08 073 1 gusting 2 12.8
2020-Jul-05 08:03 073 1 gusting 2 12.8
2020-Jul-05 07:58 073 1 gusting 2 12.8
2020-Jul-05 07:53 073 1 gusting 2 12.8
2020-Jul-05 07:48 073 1 gusting 2 12.8
2020-Jul-05 07:43 073 1 gusting 2 12.8
2020-Jul-05 07:38 073 1 gusting 2 12.8
2020-Jul-05 07:33 073 1 gusting 1 12.8
2020-Jul-05 07:28 073 1 gusting 2 12.8
2020-Jul-05 07:23 073 1 gusting 2 12.8
2020-Jul-05 07:18 073 1 gusting 2 12.8
2020-Jul-05 07:13 073 1 gusting 2 12.8
2020-Jul-05 07:08 073 1 gusting 2 12.8
2020-Jul-05 07:03 073 1 gusting 2 12.8
2020-Jul-05 06:58 073 1 gusting 1 12.8
2020-Jul-05 06:53 073 1 gusting 1 13.3
2020-Jul-05 06:48 073 1 gusting 2 13.3
2020-Jul-05 06:43 073 0 gusting 2 12.8
2020-Jul-05 06:38 073 0 gusting 1 13.3
2020-Jul-05 06:33 073 1 gusting 2 13.3
2020-Jul-05 06:28 073 1 gusting 2 13.3
2020-Jul-05 06:23 073 1 gusting 2 13.3
2020-Jul-05 06:18 073 1 gusting 2 13.3
2020-Jul-05 06:13 073 1 gusting 2 13.3
2020-Jul-05 06:08 073 1 gusting 2 13.3
2020-Jul-05 06:03 073 1 gusting 2 13.3
2020-Jul-05 05:58 073 1 gusting 2 13.3
2020-Jul-05 05:53 073 1 gusting 2 13.3
2020-Jul-05 05:48 073 1 gusting 1 13.3
2020-Jul-05 05:43 073 1 gusting 2 13.3
2020-Jul-05 05:38 073 1 gusting 2 13.3
2020-Jul-05 05:33 073 1 gusting 2 13.3
2020-Jul-05 05:28 073 1 gusting 2 13.3
2020-Jul-05 05:23 073 1 gusting 2 13.3
2020-Jul-05 05:18 073 1 gusting 2 13.3
2020-Jul-05 05:13 073 1 gusting 2 13.3
2020-Jul-05 05:08 071 1 gusting 2 13.3
2020-Jul-05 05:03 071 1 gusting 2 13.3
2020-Jul-05 04:58 071 1 gusting 2 13.3
2020-Jul-05 04:53 071 2 gusting 2 13.3
2020-Jul-05 04:48 071 2 gusting 2 13.3
2020-Jul-05 04:43 071 2 gusting 2 13.9
2020-Jul-05 04:38 071 2 gusting 2 13.9
2020-Jul-05 04:33 071 1 gusting 2 13.9
2020-Jul-05 04:28 071 1 gusting 3 13.9
2020-Jul-05 04:23 069 1 gusting 3 13.9
2020-Jul-05 04:18 029 1 gusting 2 13.9
2020-Jul-05 04:13 028 1 gusting 2 14.4
2020-Jul-05 04:08 028 1 gusting 2 14.4
2020-Jul-05 04:03 028 1 gusting 2 14.4
2020-Jul-05 03:58 005 1 gusting 2 14.4
2020-Jul-05 03:53 339 0 gusting 1 15.0
2020-Jul-05 03:48 317 0 gusting 1 15.0
2020-Jul-05 03:43 317 0 gusting 1 15.6
2020-Jul-05 03:38 317 0 gusting 1 15.6
2020-Jul-05 03:33 317 16.1
2020-Jul-05 03:28 317 0 gusting 1 16.7
2020-Jul-05 03:23 317 0 gusting 1 17.2
2020-Jul-05 03:18 317 17.2
2020-Jul-05 03:13 317 0 gusting 2 17.2
2020-Jul-05 03:08 318 0 gusting 2 17.2
2020-Jul-05 03:03 237 0 gusting 2 17.2
2020-Jul-05 02:58 244 0 gusting 2 17.8
2020-Jul-05 02:53 300 0 gusting 1 17.8
2020-Jul-05 02:48 300 0 gusting 3 17.8
2020-Jul-05 02:43 294 1 gusting 3 17.2
2020-Jul-05 02:38 294 1 gusting 5 17.8
2020-Jul-05 02:33 312 2 gusting 5 18.3
2020-Jul-05 02:28 286 1 gusting 3 17.8
2020-Jul-05 02:23 234 1 gusting 3 17.8
2020-Jul-05 02:18 229 1 gusting 3 17.8
2020-Jul-05 02:13 288 1 gusting 4 17.8
2020-Jul-05 02:08 272 2 gusting 4 17.2
2020-Jul-05 02:03 234 2 gusting 4 18.3
2020-Jul-05 01:58 218 2 gusting 4 17.8
2020-Jul-05 01:53 289 2 gusting 5 18.3
2020-Jul-05 01:48 301 2 gusting 5 18.3
2020-Jul-05 01:43 232 1 gusting 3 18.3
2020-Jul-05 01:38 244 1 gusting 3 17.8
2020-Jul-05 01:33 254 1 gusting 4 18.3
2020-Jul-05 01:28 272 1 gusting 4 18.9
2020-Jul-05 01:23 231 1 gusting 4 18.3
2020-Jul-05 01:07 237 1 gusting 3 18.9
2020-Jul-05 01:02 259 1 gusting 3 18.3
2020-Jul-05 00:58 262 2 gusting 3 18.9
2020-Jul-05 00:52 314 2 gusting 6 18.3
2020-Jul-05 00:47 277 2 gusting 6 18.3
2020-Jul-05 00:42 244 1 gusting 4 18.3
2020-Jul-05 00:37 310 2 gusting 6 18.9
2020-Jul-05 00:32 237 2 gusting 6 18.3
2020-Jul-05 00:27 220 1 gusting 5 18.3
2020-Jul-05 00:22 303 2 gusting 5 18.9
2020-Jul-05 00:17 244 2 gusting 5 18.9
2020-Jul-05 00:12 263 2 gusting 5 18.3
2020-Jul-05 00:07 244 2 gusting 5 18.3
2020-Jul-05 00:02 190 3 gusting 5 18.9
2020-Jul-04 23:57 259 2 gusting 5 18.9
2020-Jul-04 23:53 298 2 gusting 6 18.9
2020-Jul-04 23:47 305 2 gusting 6 18.9
2020-Jul-04 23:42 327 2 gusting 6 19.4
2020-Jul-04 23:37 281 2 gusting 4 18.9
2020-Jul-04 23:32 254 2 gusting 5 18.9
2020-Jul-04 23:27 312 2 gusting 5 18.3
2020-Jul-04 23:22 292 3 gusting 5 18.9
2020-Jul-04 23:17 296 2 gusting 5 19.4
2020-Jul-04 23:12 254 2 gusting 5 18.9
2020-Jul-04 23:07 284 2 gusting 5 19.4
2020-Jul-04 23:02 283 2 gusting 6 18.9
2020-Jul-04 22:57 294 2 gusting 6 18.9
2020-Jul-04 22:52 293 2 gusting 5 19.4
2020-Jul-04 22:47 314 2 gusting 6 19.4
2020-Jul-04 22:42 313 2 gusting 6 18.9
2020-Jul-04 22:37 320 1 gusting 4 18.3
2020-Jul-04 22:32 290 2 gusting 4 17.2
2020-Jul-04 22:27 312 2 gusting 4 17.2
2020-Jul-04 22:22 304 2 gusting 4 17.2
2020-Jul-04 22:17 311 2 gusting 6 17.8
2020-Jul-04 22:12 317 2 gusting 6 17.8
2020-Jul-04 22:07 284 2 gusting 6 18.3
2020-Jul-04 22:02 288 2 gusting 4 18.3
2020-Jul-04 21:57 318 2 gusting 6 17.2
2020-Jul-04 21:52 331 2 gusting 6 18.3
2020-Jul-04 21:47 326 3 gusting 6 18.3
2020-Jul-04 21:42 311 3 gusting 6 19.4
2020-Jul-04 21:37 322 2 gusting 6 18.9
2020-Jul-04 21:32 220 2 gusting 4 17.8
2020-Jul-04 21:27 312 2 gusting 6 17.8
2020-Jul-04 21:22 327 2 gusting 6 17.8
2020-Jul-04 21:17 306 2 gusting 6 17.8
2020-Jul-04 21:12 318 2 gusting 6 18.3
2020-Jul-04 21:07 337 1 gusting 6 18.9
2020-Jul-04 21:02 304 0 gusting 3 17.8
2020-Jul-04 20:57 268 0 gusting 2 16.1
2020-Jul-04 20:52 254 1 gusting 4 16.7
2020-Jul-04 20:47 262 1 gusting 4 16.7
2020-Jul-04 20:42 291 1 gusting 3 16.7
2020-Jul-04 20:37 315 2 gusting 5 17.8
2020-Jul-04 20:32 341 2 gusting 5 17.2
2020-Jul-04 20:27 310 1 gusting 3 16.1
2020-Jul-04 20:22 317 0 gusting 2 16.1
2020-Jul-04 20:17 317 0 gusting 1 16.1
2020-Jul-04 20:12 318 0 gusting 2 15.6
2020-Jul-04 20:07 318 0 gusting 2 16.1
2020-Jul-04 20:02 318 0 gusting 3 16.1
2020-Jul-04 19:57 319 2 gusting 6 16.7
2020-Jul-04 19:52 327 2 gusting 6 17.2
2020-Jul-04 19:47 311 2 gusting 4 16.7
2020-Jul-04 19:42 324 1 gusting 3 16.1
2020-Jul-04 19:37 304 0 gusting 2 16.1
2020-Jul-04 19:32 323 0 gusting 1 16.7
2020-Jul-04 19:27 320 0 gusting 1 16.1
2020-Jul-04 19:22 008 14.4
2020-Jul-04 19:17 323 0 gusting 2 14.4
2020-Jul-04 19:12 323 0 gusting 2 14.4
2020-Jul-04 19:07 323 0 gusting 2 14.4
2020-Jul-04 19:02 323 1 gusting 2 14.4
2020-Jul-04 18:57 323 1 gusting 3 14.4
2020-Jul-04 18:52 291 0 gusting 3 15.0
2020-Jul-04 18:47 315 14.4
2020-Jul-04 18:42 315 0 gusting 1 13.3
2020-Jul-04 18:37 315 0 gusting 2 13.3
2020-Jul-04 18:32 315 0 gusting 2 13.3
2020-Jul-04 18:27 315 0 gusting 2 13.9
2020-Jul-04 18:22 315 0 gusting 2 13.3
2020-Jul-04 18:17 314 1 gusting 2 13.3
2020-Jul-04 18:12 316 1 gusting 2 13.3
2020-Jul-04 18:07 318 1 gusting 3 13.3
2020-Jul-04 18:02 318 1 gusting 3 13.9
2020-Jul-04 17:57 314 0 gusting 2 13.9
2020-Jul-04 17:52 296 0 gusting 1 13.3
2020-Jul-04 17:47 296 0 gusting 1 13.3
2020-Jul-04 17:42 296 1 gusting 2 13.3
2020-Jul-04 17:37 296 1 gusting 3 13.3
2020-Jul-04 17:32 286 1 gusting 3 13.9
2020-Jul-04 17:27 312 1 gusting 2 13.3
2020-Jul-04 17:22 312 1 gusting 2 13.9
2020-Jul-04 17:17 272 0 gusting 2 13.3
2020-Jul-04 17:12 282 13.3
2020-Jul-04 17:07 282 0 gusting 1 12.8
2020-Jul-04 17:02 282 0 gusting 1 12.8